FW0729 Weather Reports


time (UTC)temp
F
wind
direction
speed
knots
gust
knots
rain 1hr
in
rain 24hr
in
rain mn
in
humidity
%
barometer
mb
20260508064511 44 6 1.7 7.8 0.00 0.65 0.00 95 1001.1
20260508063007 44 353 2.6 7.8 0.00 0.65 0.00 95 1001.3
20260508061510 44 10 0.9 5.2 0.00 0.65 0.00 95 1001.1
20260508060005 41 251 0.0 0.0 0.00 0.65 0.00 95 1000.9
20260508054504 40 251 0.0 0.0 0.00 0.65 0.00 95 1001.0
20260508053002 40 251 0.0 0.0 0.00 0.65 0.00 95 1001.0
20260508051502 41 251 0.9 1.7 0.00 0.65 0.00 95 1000.9
20260508044607 42 251 0.0 0.0 0.00 0.65 0.00 95 1001.2
20260508043108 43 251 0.0 0.0 0.00 0.65 0.00 95 1001.2
20260508041556 43 251 0.0 0.0 0.00 0.65 0.00 95 1001.3
20260508040059 43 251 0.0 0.0 0.00 0.65 0.00 95 1001.5
20260508034555 43 251 0.0 1.7 0.00 0.65 0.00 95 1001.5
20260508033049 43 251 0.0 1.7 0.00 0.65 0.00 95 1001.7
20260508031548 43 243 0.0 1.7 0.00 0.65 0.00 95 1001.6
20260508030056 43 246 0.0 2.6 0.00 0.65 0.00 95 1001.6
20260508024547 43 249 0.0 2.6 0.00 0.65 0.65 95 1001.5
20260508023045 43 249 0.9 3.5 0.00 0.65 0.65 95 1001.3
20260508021544 43 245 0.9 5.2 0.00 0.65 0.65 95 1001.4
20260508020047 43 241 0.9 4.3 0.01 0.65 0.65 95 1001.6
20260508014546 43 230 2.6 7.8 0.01 0.65 0.65 95 1001.6
20260508013041 42 220 1.7 5.2 0.01 0.65 0.65 95 1001.5
20260508011543 41 190 1.7 7.0 0.01 0.65 0.65 95 1001.7
20260508010139 41 178 1.7 5.2 0.00 0.65 0.65 94 1002.0
20260508004535 43 179 2.6 7.0 0.00 0.65 0.65 95 1002.3
20260508003035 43 176 3.5 9.6 0.00 0.65 0.65 95 1002.2
20260508001535 44 180 3.5 7.8 0.00 0.65 0.65 95 1002.4
20260508000032 43 207 0.9 5.2 0.00 0.65 0.65 95 1002.9
20260507234531 42 202 2.6 7.0 0.01 0.65 0.65 94 1002.4
20260507233033 44 193 2.6 7.0 0.01 0.65 0.65 95 1002.8
20260507231538 44 197 1.7 7.8 0.01 0.65 0.65 95 1002.9
20260507230029 44 185 2.6 8.7 0.01 0.65 0.65 95 1002.8
20260507224528 44 180 3.5 7.8 0.01 0.64 0.64 95 1002.9
20260507223028 44 179 1.7 8.7 0.02 0.64 0.64 95 1002.9
20260507221530 44 191 3.5 8.7 0.06 0.64 0.64 95 1003.3
20260507220026 43 189 1.7 7.8 0.12 0.64 0.64 94 1002.9
20260507214525 42 131 8.7 11.3 0.16 0.63 0.63 94 1002.6
20260507213027 44 181 2.6 7.0 0.23 0.62 0.62 95 1003.6
20260507211520 43 197 1.7 7.0 0.24 0.57 0.57 94 1004.0
20260507210018 45 159 2.6 13.0 0.31 0.52 0.52 95 1004.6
20260507204517 45 182 3.5 14.8 0.32 0.47 0.47 95 1004.9
20260507203016 43 122 6.1 13.0 0.28 0.39 0.39 94 1004.2
20260507201516 43 207 5.2 11.3 0.27 0.34 0.34 94 1004.7
20260507200012 44 185 5.2 12.2 0.17 0.20 0.20 94 1005.1
20260507194512 44 179 6.1 13.9 0.13 0.15 0.15 94 1005.1
20260507193009 44 134 9.6 17.4 0.09 0.10 0.10 94 1005.3
20260507191506 44 173 7.8 13.9 0.07 0.07 0.07 94 1005.8
20260507190006 44 189 8.7 17.4 0.04 0.04 0.04 94 1005.9
20260507184504 44 149 9.6 17.4 0.02 0.02 0.02 94 1005.7
20260507183009 44 207 7.0 14.8 0.01 0.01 0.01 94 1005.6
20260507181503 44 150 9.6 17.4 0.00 0.00 0.00 94 1005.7
20260507180001 44 143 10.4 16.5 0.00 0.00 0.00 94 1005.8
20260507174608 45 156 8.7 13.9 0.00 0.00 0.00 94 1006.3
20260507173103 44 207 8.7 14.8 0.00 0.00 0.00 93 1006.6
20260507173002 43 165 7.8 13.9 0.00 0.00 0.00 93 1006.6
20260507171613 45 150 11.3 15.6 0.00 0.00 0.00 93 1006.7
20260507170058 45 110 7.8 14.8 0.00 0.00 0.00 93 1007.3
20260507164606 45 178 7.8 15.6 0.00 0.00 0.00 93 1007.4
20260507163149 45 158 6.1 13.9 0.00 0.00 0.00 93 1008.1
20260507161547 45 153 8.7 15.6 0.00 0.00 0.00 93 1008.4
20260507160046 45 164 10.4 17.4 0.00 0.00 0.00 94 1008.6
20260507154544 45 207 7.0 14.8 0.00 0.00 0.00 93 1008.7
20260507153048 45 185 8.7 14.8 0.00 0.00 0.00 94 1009.1
20260507151543 45 172 8.7 18.2 0.00 0.00 0.00 94 1009.7
20260507150038 45 156 9.6 18.2 0.00 0.00 0.00 93 1009.7
20260507144536 45 165 7.0 13.9 0.00 0.00 0.00 93 1010.1
20260507143036 46 156 7.0 19.1 0.00 0.00 0.00 94 1010.6
20260507141534 46 145 9.6 20.0 0.00 0.00 0.00 94 1010.7
20260507140032 46 183 10.4 22.6 0.00 0.00 0.00 94 1010.7
20260507134537 46 173 9.6 20.0 0.00 0.00 0.00 94 1010.9
20260507133029 46 191 6.1 15.6 0.00 0.00 0.00 94 1011.3
20260507131534 45 125 11.3 18.2 0.00 0.00 0.00 94 1011.1
20260507130026 44 145 7.8 15.6 0.00 0.00 0.00 94 1011.1
20260507124522 44 160 8.7 13.9 0.00 0.00 0.00 94 1011.1
20260507123021 44 169 9.6 16.5 0.00 0.00 0.00 94 1012.0
20260507121517 44 185 7.0 15.6 0.00 0.00 0.00 94 1012.5
20260507120016 44 164 7.8 17.4 0.00 0.00 0.00 94 1012.8
20260507114524 43 142 7.8 15.6 0.00 0.00 0.00 94 1013.0
20260507113012 43 223 8.7 14.8 0.00 0.00 0.00 94 1013.3
20260507111519 43 156 6.1 14.8 0.00 0.00 0.00 94 1012.7
20260507110009 44 147 4.3 13.9 0.00 0.00 0.00 94 1013.2
20260507104506 44 143 4.3 13.9 0.00 0.00 0.00 94 1013.7
20260507103002 43 166 3.5 9.6 0.00 0.00 0.00 93 1013.4
20260507101503 44 216 2.6 9.6 0.00 0.00 0.00 94 1013.7
20260507100059 43 176 3.5 11.3 0.00 0.00 0.00 93 1013.4
20260507094610 44 188 3.5 8.7 0.00 0.00 0.00 93 1013.3
20260507093058 45 195 2.6 12.2 0.00 0.00 0.00 93 1013.7
20260507091613 46 179 5.2 12.2 0.00 0.00 0.00 94 1014.0
20260507090057 46 202 3.5 9.6 0.00 0.00 0.00 93 1013.8
20260507084553 46 212 5.2 10.4 0.00 0.00 0.00 93 1013.8
20260507083044 46 233 1.7 9.6 0.00 0.00 0.00 93 1013.8
20260507081543 47 195 4.3 11.3 0.00 0.00 0.00 93 1014.3
20260507080040 47 195 4.3 10.4 0.00 0.00 0.00 93 1014.5
20260507074544 46 156 2.6 7.8 0.00 0.00 0.00 93 1014.5
20260507073037 46 188 1.7 7.8 0.00 0.00 0.00 93 1014.8
20260507071537 46 236 2.6 7.8 0.00 0.00 0.00 94 1014.9
20260507070039 46 194 2.6 7.8 0.00 0.00 0.00 94 1015.1